Sacramento, CA

4:35 PM PST on February 24, 2017 (GMT -0800)
Sacramento Executive

Weather History for KSAC - July, 2013

Change the Weather History Date:

Saturday, July 20, 2013

  Actual Average Record
Temperature  
Mean Temperature 78 °F -  
Max Temperature 98 °F 93 °F 109 °F (1960)
Min Temperature 58 °F 59 °F 50 °F (1983)
Degree Days  
Heating Degree Days 0    
Cooling Degree Days 13    
Growing Degree Days 28 (Base 50)    
Moisture  
Dew Point 53 °F    
Average Humidity 52    
Maximum Humidity 80    
Minimum Humidity 24    
Precipitation  
Precipitation 0.00 in 0.00 in 0.01 in (2014)
Month to date precipitation 0.00 0.00  
Year to date precipitation 3.91 11.90  
Since 1 July precipitation 0.00  
Sea Level Pressure  
Sea Level Pressure 29.74 in    
Wind  
Wind Speed 5 mph (SSW)    
Max Wind Speed 29 mph    
Max Gust Speed 104 mph    
Visibility 10 miles    
Events      
T = Trace of Precipitation, MM = Missing Value Source: NWS Daily Summary

Daily Weather History Graph

Daily Weather History Graph

Search for Another Location

Airport or City:

Trip Planner

Search our weather history database for the weather conditions in past years. The results will help you decide how hot, cold, wet, or windy it might be!

Date:

Astronomy

Jul. 20, 2013 Rise Set
Actual Time 5:58 AM PDT 8:26 PM PDT
Civil Twilight 5:27 AM PDT 8:56 PM PDT
Nautical Twilight 4:49 AM PDT 9:34 PM PDT
Astronomical Twilight 4:07 AM PDT 10:15 PM PDT
Moon 6:34 PM PDT (7/20) 3:43 AM PDT (7/20)
Length of Visible Light 15h 28m
Length of Day
14h 28m
Waxing Gibbous, 94% of the Moon is Illuminated
Jul 20
Waxing Gibbous
Jul 22
Full
Jul 29
Last Quarter
Aug 6
New
Aug 14
First Quarter

Hourly Weather History & Observations

Time (PDT) Temp. Heat Index Dew Point Humidity Pressure Visibility Wind Dir Wind Speed Gust Speed Precip Events Conditions
12:53 AM 66.0 °F - 51.1 °F 59% 29.78 in 10.0 mi SSE 4.6 mph - N/A   Clear
1:53 AM 64.9 °F - 52.0 °F 63% 29.78 in 10.0 mi South 3.5 mph - N/A   Clear
2:53 AM 64.0 °F - 51.1 °F 63% 29.77 in 10.0 mi South 3.5 mph - N/A   Clear
3:53 AM 61.0 °F - 51.1 °F 70% 29.77 in 10.0 mi SSW 5.8 mph - N/A   Clear
4:18 AM 60.8 °F - 51.8 °F 72% 29.77 in 10.0 mi North - - N/A   Squalls
4:53 AM 60.1 °F - 51.1 °F 72% 29.77 in 10.0 mi SSW 8.1 mph - N/A   Clear
5:53 AM 57.9 °F - 52.0 °F 81% 29.77 in 9.0 mi SSW 6.9 mph - N/A   Clear
6:53 AM 59.0 °F - 52.0 °F 78% 29.79 in 8.0 mi SSW 3.5 mph - N/A   Clear
7:53 AM 62.1 °F - 53.1 °F 72% 29.80 in 9.0 mi South 4.6 mph - N/A   Clear
8:53 AM 66.0 °F - 53.1 °F 63% 29.81 in 10.0 mi South 3.5 mph - N/A   Clear
9:53 AM 71.1 °F - 55.0 °F 57% 29.80 in 10.0 mi South 5.8 mph - N/A   Clear
10:53 AM 75.9 °F - 55.9 °F 50% 29.79 in 10.0 mi SSW 6.9 mph - N/A   Clear
11:53 AM 82.0 °F 81.6 °F 55.9 °F 41% 29.77 in 10.0 mi SW 4.6 mph - N/A   Clear
12:53 PM 88.0 °F 86.5 °F 55.9 °F 34% 29.75 in 10.0 mi SW 4.6 mph - N/A   Clear
1:53 PM 91.9 °F 90.6 °F 57.0 °F 31% 29.73 in 10.0 mi WSW 4.6 mph - N/A   Clear
2:53 PM 95.0 °F 93.4 °F 55.9 °F 27% 29.71 in 10.0 mi SW 6.9 mph - N/A   Clear
3:53 PM 98.1 °F 96.4 °F 55.0 °F 24% 29.68 in 10.0 mi SW 9.2 mph - N/A   Clear
4:53 PM 97.0 °F 94.6 °F 53.1 °F 23% 29.66 in 10.0 mi SSW 10.4 mph - N/A   Clear
5:53 PM 95.0 °F 92.5 °F 53.1 °F 24% 29.65 in 10.0 mi SSW 8.1 mph - N/A   Clear
6:53 PM 91.0 °F 88.5 °F 53.1 °F 27% 29.64 in 10.0 mi Variable 4.6 mph - N/A   Clear
7:53 PM 82.9 °F 82.1 °F 55.9 °F 39% 29.65 in 10.0 mi SSW 6.9 mph - N/A   Clear
8:53 PM 75.0 °F - 54.0 °F 48% 29.67 in 10.0 mi SSW 6.9 mph - N/A   Clear
9:53 PM 72.0 °F - 53.1 °F 51% 29.68 in 10.0 mi SSW 6.9 mph - N/A   Clear
10:53 PM 72.0 °F - 52.0 °F 49% 29.70 in 10.0 mi South 5.8 mph - N/A   Clear
11:53 PM 71.1 °F - 51.1 °F 49% 29.70 in 10.0 mi South 5.8 mph - N/A   Clear